Location: Namasale
(1.5000°N, 32.6167°E)
Time: 00:03:02
(UTC+00:00)

Vanguard 3 - Pass Details

Date: 08 December 2021
Orbit: 508 x 3260 km, 33.3° (Epoch: 27 January)

Event Time Altitude Azimuth Distance (km) Brightness Sun altitude
Rises 17:36:49 0° 191° (S) 3,623 11.0 -27.0°
Reaches altitude 10° 17:41:13 10° 161° (SSE) 3,185 10.2 -28.0°
Maximum altitude 17:44:24 12° 138° (SE) 3,361 10.1 -28.7°
Enters shadow 17:45:27 12° 131° (SE) 3,499 10.1 -29.0°
